This is the latest recevied weather packets stored in our database for station/object IR3AS. If no packets are shown the sender has not sent any weather packets the latest 10 day(s).
| Time | Temp. | Humidity | Pressure | Rain* | Wind** | Luminosity | Snow |
|---|---|---|---|---|---|---|---|
| 1788101692 | 17.78° C | 62% | 867.8 hPa | 0 mm | - | - | - |
| 1788101392 | 18.33° C | 59% | 867.7 hPa | 0 mm | - | - | - |
| 1788101092 | 18.89° C | 58% | 867.8 hPa | 0 mm | - | - | - |
| 1788100792 | 19.44° C | 57% | 868.1 hPa | 0 mm | - | - | - |
| 1788100492 | 19.44° C | 57% | 867.9 hPa | 0 mm | - | - | - |
| 1788100192 | 19.44° C | 58% | 867.7 hPa | 0 mm | - | - | - |
| 1788099892 | 19.44° C | 56% | 867.7 hPa | 0 mm | - | - | - |
| 1788099592 | 20° C | 55% | 867.8 hPa | 0 mm | - | - | - |
| 1788099292 | 20° C | 55% | 867.7 hPa | 0 mm | - | - | - |
| 1788098992 | 20.56° C | 55% | 867.9 hPa | 0 mm | - | - | - |
| 1788098759 | 20.56° C | 56% | 867.8 hPa | 0 mm | - | - | - |
| 1788098692 | 20.56° C | 56% | 867.8 hPa | 0 mm | - | - | - |
| 1788098392 | 20° C | 54% | 867.9 hPa | 0 mm | - | - | - |
| 1788098092 | 20.56° C | 55% | 868 hPa | 0 mm | - | - | - |
| 1788097792 | 20° C | 55% | 867.6 hPa | 0 mm | - | - | - |
| 1788097492 | 20.56° C | 54% | 867.8 hPa | 0 mm | - | - | - |
| 1788097233 | 21.11° C | 54% | 867.7 hPa | 0 mm | - | - | - |
| 1788097192 | 21.11° C | 54% | 867.7 hPa | 0 mm | - | - | - |
| 1788096893 | 21.67° C | 54% | 867.8 hPa | 0 mm | - | - | - |
| 1788096592 | 21.67° C | 54% | 867.6 hPa | 0 mm | - | - | - |
| 1788096292 | 21.67° C | 55% | 867.8 hPa | 0 mm | - | - | - |
| 1788095992 | 21.11° C | 54% | 868.2 hPa | 0 mm | - | - | - |
| 1788095694 | 21.11° C | 53% | 868 hPa | 0 mm | - | - | - |
| 1788095392 | 21.67° C | 55% | 867.8 hPa | 0 mm | - | - | - |
| 1788095092 | 21.11° C | 54% | 868.2 hPa | 0 mm | - | - | - |
* Rain latest hour (hover to see other rain measurements)
** Current wind speed in m/s (hover to see current wind gust speed)